Time,TemperatureF,DewpointF,PressureIn,WindDirection,WindDirectionDegrees,WindSpeedMPH,WindSpeedGustMPH,Humidity,HourlyPrecipIn,Conditions,Clouds,dailyrainin,SoftwareType,DateUTC
2013-07-11 00:01:00,64.0,49.0,30.34,North,360,3.0,7.0,59,0.00,,,0.00,,2013-07-11 06:01:00,
2013-07-11 00:11:00,64.0,49.0,30.34,North,360,3.0,7.0,59,0.00,,,0.00,,2013-07-11 06:11:00,
2013-07-11 00:22:00,63.0,49.0,30.33,NNE,13,0.0,5.0,61,0.00,,,0.00,,2013-07-11 06:22:00,
2013-07-11 00:32:00,62.0,49.0,30.34,NNE,13,0.0,2.0,62,0.00,,,0.00,,2013-07-11 06:32:00,
2013-07-11 00:43:00,62.0,49.0,30.34,NNE,13,0.0,2.0,62,0.00,,,0.00,,2013-07-11 06:43:00,
2013-07-11 00:53:00,61.0,49.0,30.34,NNE,14,0.0,1.0,65,0.00,,,0.00,,2013-07-11 06:53:00,
2013-07-11 01:01:00,60.0,48.0,30.34,NNE,13,0.0,3.0,64,0.00,,,0.00,,2013-07-11 07:01:00,
2013-07-11 01:12:00,60.0,48.0,30.34,NNE,13,0.0,3.0,64,0.00,,,0.00,,2013-07-11 07:12:00,
2013-07-11 01:22:00,58.0,46.0,30.34,NNE,13,2.0,3.0,65,0.00,,,0.00,,2013-07-11 07:22:00,
2013-07-11 01:32:00,57.0,47.0,30.35,NNE,14,3.0,4.0,68,0.00,,,0.00,,2013-07-11 07:32:00,
2013-07-11 01:45:00,57.0,47.0,30.35,NNE,14,3.0,4.0,68,0.00,,,0.00,,2013-07-11 07:45:00,
2013-07-11 01:53:00,57.0,47.0,30.35,NNE,14,0.0,2.0,69,0.00,,,0.00,,2013-07-11 07:53:00,
2013-07-11 02:02:00,57.0,47.0,30.34,ESE,119,0.0,4.0,69,0.00,,,0.00,,2013-07-11 08:02:00,
2013-07-11 02:11:00,57.0,47.0,30.34,ESE,119,0.0,4.0,69,0.00,,,0.00,,2013-07-11 08:11:00,
2013-07-11 02:22:00,57.0,47.0,30.34,ESE,119,0.0,0.0,70,0.00,,,0.00,,2013-07-11 08:22:00,
2013-07-11 02:34:00,57.0,47.0,30.33,South,170,0.0,6.0,69,0.00,,,0.00,,2013-07-11 08:34:00,
2013-07-11 02:43:00,57.0,47.0,30.33,South,170,0.0,6.0,69,0.00,,,0.00,,2013-07-11 08:43:00,
2013-07-11 02:53:00,57.0,48.0,30.33,South,169,1.0,3.0,71,0.00,,,0.00,,2013-07-11 08:53:00,
2013-07-11 03:02:00,60.0,49.0,30.33,WSW,245,8.0,11.0,66,0.00,,,0.00,,2013-07-11 09:02:00,
2013-07-11 03:12:00,60.0,49.0,30.33,WSW,245,8.0,11.0,66,0.00,,,0.00,,2013-07-11 09:12:00,
2013-07-11 03:21:00,61.0,49.0,30.31,West,260,5.0,9.0,64,0.00,,,0.00,,2013-07-11 09:21:00,
2013-07-11 03:30:00,61.0,47.0,30.31,WSW,244,8.0,10.0,61,0.00,,,0.00,,2013-07-11 09:30:00,
2013-07-11 03:33:00,61.0,47.0,30.31,WSW,244,4.0,10.0,60,0.00,,,0.00,,2013-07-11 09:33:00,
2013-07-11 03:43:00,61.0,47.0,30.31,WSW,244,4.0,10.0,60,0.00,,,0.00,,2013-07-11 09:43:00,
2013-07-11 03:53:00,61.0,47.0,30.31,WSW,244,8.0,10.0,61,0.00,,,0.00,,2013-07-11 09:53:00,
2013-07-11 04:01:00,61.0,47.0,30.31,WSW,244,8.0,10.0,61,0.00,,,0.00,,2013-07-11 10:01:00,
2013-07-11 04:12:00,61.0,47.0,30.31,WSW,244,8.0,10.0,61,0.00,,,0.00,,2013-07-11 10:12:00,
2013-07-11 04:22:00,61.0,47.0,30.31,WSW,244,8.0,10.0,61,0.00,,,0.00,,2013-07-11 10:22:00,
2013-07-11 08:55:00,66.0,43.0,30.29,South,169,9.0,14.0,43,0.00,,,0.00,,2013-07-11 14:55:00,
2013-07-11 09:13:00,69.0,44.0,30.30,South,188,7.0,13.0,40,0.00,,,0.00,,2013-07-11 15:13:00,
2013-07-11 09:35:00,75.0,43.0,30.29,South,169,4.0,10.0,32,0.00,,,0.00,,2013-07-11 15:35:00,
2013-07-11 09:45:00,75.0,43.0,30.29,South,169,4.0,10.0,32,0.00,,,0.00,,2013-07-11 15:45:00,
2013-07-11 10:13:00,79.0,41.0,30.27,South,169,5.0,12.0,26,0.00,,,0.00,,2013-07-11 16:13:00,
2013-07-11 10:56:00,84.0,42.0,30.26,South,178,6.0,13.0,23,0.00,,,0.00,,2013-07-11 16:56:00,
2013-07-11 11:02:00,85.0,38.0,30.27,SW,219,5.0,11.0,19,0.00,,,0.00,,2013-07-11 17:02:00,
2013-07-11 11:13:00,85.0,38.0,30.27,SW,219,5.0,11.0,19,0.00,,,0.00,,2013-07-11 17:13:00,
2013-07-11 11:26:00,86.0,35.0,30.25,SSW,196,11.0,16.0,16,0.00,,,0.00,,2013-07-11 17:26:00,
2013-07-11 11:36:00,86.0,35.0,30.25,SSW,209,8.0,18.0,16,0.00,,,0.00,,2013-07-11 17:36:00,
2013-07-11 11:55:00,86.0,35.0,30.25,SW,222,7.0,12.0,16,0.00,,,0.00,,2013-07-11 17:55:00,
2013-07-11 12:03:00,87.0,37.0,30.25,South,172,1.0,16.0,17,0.00,,,0.00,,2013-07-11 18:03:00,
2013-07-11 12:14:00,87.0,37.0,30.25,South,172,1.0,16.0,17,0.00,,,0.00,,2013-07-11 18:14:00,
2013-07-11 12:23:00,87.0,35.0,30.23,WSW,250,9.0,19.0,16,0.00,,,0.00,,2013-07-11 18:23:00,
2013-07-11 12:35:00,87.0,34.0,30.22,SSW,194,8.0,16.0,15,0.00,,,0.00,,2013-07-11 18:35:00,
2013-07-11 12:45:00,87.0,34.0,30.22,SSW,194,8.0,16.0,15,0.00,,,0.00,,2013-07-11 18:45:00,
2013-07-11 12:56:00,87.0,34.0,30.22,SW,219,11.0,16.0,15,0.00,,,0.00,,2013-07-11 18:56:00,
2013-07-11 13:03:00,88.0,35.0,30.23,South,188,11.0,16.0,15,0.00,,,0.00,,2013-07-11 19:03:00,
2013-07-11 13:13:00,88.0,35.0,30.23,South,188,11.0,16.0,15,0.00,,,0.00,,2013-07-11 19:13:00,
2013-07-11 13:23:00,89.0,35.0,30.23,SW,217,4.0,15.0,15,0.00,,,0.00,,2013-07-11 19:23:00,
2013-07-11 13:44:00,89.0,35.0,30.22,South,182,0.0,2.0,15,0.00,,,0.00,,2013-07-11 19:44:00,
2013-07-11 13:57:00,88.0,35.0,30.21,WSW,244,0.0,2.0,15,0.00,,,0.00,,2013-07-11 19:57:00,
2013-07-11 14:03:00,88.0,36.0,30.23,South,188,1.0,9.0,16,0.00,,,0.00,,2013-07-11 20:03:00,
2013-07-11 14:12:00,88.0,36.0,30.23,South,188,1.0,9.0,16,0.00,,,0.00,,2013-07-11 20:12:00,
2013-07-11 14:25:00,88.0,36.0,30.22,ESE,106,0.0,7.0,16,0.00,,,0.00,,2013-07-11 20:25:00,
2013-07-11 14:36:00,87.0,37.0,30.20,SE,136,0.0,5.0,17,0.00,,,0.00,,2013-07-11 20:36:00,
2013-07-11 14:46:00,87.0,37.0,30.20,SE,136,0.0,5.0,17,0.00,,,0.00,,2013-07-11 20:46:00,
2013-07-11 14:56:00,88.0,38.0,30.20,South,176,0.0,2.0,17,0.00,,,0.00,,2013-07-11 20:56:00,
2013-07-11 15:04:00,87.0,37.0,30.20,SSW,206,2.0,9.0,17,0.00,,,0.00,,2013-07-11 21:04:00,
2013-07-11 15:13:00,87.0,37.0,30.20,SSW,206,2.0,9.0,17,0.00,,,0.00,,2013-07-11 21:13:00,
2013-07-11 15:23:00,87.0,37.0,30.19,South,175,2.0,10.0,17,0.00,,,0.00,,2013-07-11 21:23:00,
2013-07-11 15:44:00,88.0,39.0,30.18,South,181,3.0,14.0,18,0.00,,,0.00,,2013-07-11 21:44:00,
2013-07-11 16:04:00,92.0,39.0,30.19,SSW,193,6.0,12.0,16,0.00,,,0.00,,2013-07-11 22:04:00,
2013-07-11 16:14:00,92.0,39.0,30.19,SSW,193,6.0,12.0,16,0.00,,,0.00,,2013-07-11 22:14:00,
2013-07-11 16:24:00,88.0,38.0,30.17,SSE,153,2.0,16.0,17,0.00,,,0.00,,2013-07-11 22:24:00,
2013-07-11 16:32:00,88.0,41.0,30.17,SE,138,2.0,15.0,19,0.00,,,0.00,,2013-07-11 22:32:00,
2013-07-11 16:45:00,88.0,41.0,30.17,SE,138,2.0,15.0,19,0.00,,,0.00,,2013-07-11 22:45:00,
2013-07-11 16:55:00,89.0,38.0,30.16,SSE,168,1.0,7.0,17,0.00,,,0.00,,2013-07-11 22:55:00,
2013-07-11 17:03:00,90.0,38.0,30.16,SW,220,0.0,11.0,16,0.00,,,0.00,,2013-07-11 23:03:00,
2013-07-11 17:13:00,90.0,38.0,30.16,SW,220,0.0,11.0,16,0.00,,,0.00,,2013-07-11 23:13:00,
2013-07-11 17:24:00,91.0,37.0,30.16,SW,224,0.0,0.0,15,0.00,,,0.00,,2013-07-11 23:24:00,
2013-07-11 17:34:00,90.0,39.0,30.15,SSE,155,3.0,8.0,17,0.00,,,0.00,,2013-07-11 23:34:00,
2013-07-11 17:46:00,90.0,39.0,30.15,SSE,155,3.0,8.0,17,0.00,,,0.00,,2013-07-11 23:46:00,
2013-07-11 17:58:00,90.0,36.0,30.15,SSW,204,2.0,11.0,15,0.00,,,0.00,,2013-07-11 23:58:00,
2013-07-11 18:13:00,89.0,35.0,30.14,SW,219,1.0,11.0,15,0.00,,,0.00,,2013-07-12 00:13:00,
2013-07-11 18:23:00,89.0,35.0,30.12,WNW,288,5.0,9.0,15,0.00,,,0.00,,2013-07-12 00:23:00,
2013-07-11 18:34:00,88.0,36.0,30.12,SSW,196,7.0,15.0,16,0.00,,,0.00,,2013-07-12 00:34:00,
2013-07-11 18:43:00,88.0,36.0,30.12,SSW,196,7.0,15.0,16,0.00,,,0.00,,2013-07-12 00:43:00,
2013-07-11 18:58:00,87.0,38.0,30.14,SSW,205,10.0,16.0,18,0.00,,,0.00,,2013-07-12 00:58:00,
2013-07-11 19:12:00,86.0,38.0,30.14,SW,223,5.0,14.0,18,0.00,,,0.00,,2013-07-12 01:12:00,
2013-07-11 19:26:00,85.0,38.0,30.13,SSW,208,5.0,11.0,19,0.00,,,0.00,,2013-07-12 01:26:00,
2013-07-11 19:45:00,84.0,37.0,30.12,SSW,206,2.0,9.0,19,0.00,,,0.00,,2013-07-12 01:45:00,
2013-07-11 19:56:00,84.0,37.0,30.12,South,183,3.0,6.0,19,0.00,,,0.00,,2013-07-12 01:56:00,
2013-07-11 20:15:00,81.0,41.0,30.13,South,180,0.0,1.0,24,0.00,,,0.00,,2013-07-12 02:15:00,
2013-07-11 20:24:00,80.0,40.0,30.13,SSE,161,0.0,4.0,24,0.00,,,0.00,,2013-07-12 02:24:00,
2013-07-11 20:34:00,81.0,39.0,30.15,WNW,290,1.0,9.0,22,0.00,,,0.00,,2013-07-12 02:34:00,
2013-07-11 20:43:00,81.0,39.0,30.15,WNW,290,1.0,9.0,22,0.00,,,0.00,,2013-07-12 02:43:00,
2013-07-11 20:55:00,79.0,39.0,30.14,WNW,300,0.0,3.0,24,0.00,,,0.00,,2013-07-12 02:55:00,
2013-07-11 21:02:00,78.0,37.0,30.16,WNW,300,0.0,0.0,23,0.00,,,0.00,,2013-07-12 03:02:00,
2013-07-11 21:14:00,78.0,37.0,30.16,WNW,300,0.0,0.0,23,0.00,,,0.00,,2013-07-12 03:14:00,
2013-07-11 21:23:00,77.0,37.0,30.16,WNW,292,0.0,0.0,24,0.00,,,0.00,,2013-07-12 03:23:00,
2013-07-11 21:35:00,75.0,38.0,30.17,WNW,293,0.0,2.0,26,0.00,,,0.00,,2013-07-12 03:35:00,
2013-07-11 21:43:00,75.0,38.0,30.17,WNW,293,0.0,2.0,26,0.00,,,0.00,,2013-07-12 03:43:00,
2013-07-11 21:56:00,75.0,39.0,30.16,WNW,292,0.0,3.0,27,0.00,,,0.00,,2013-07-12 03:56:00,
2013-07-11 22:01:00,75.0,39.0,30.17,SSW,193,1.0,4.0,27,0.00,,,0.00,,2013-07-12 04:01:00,
2013-07-11 22:11:00,75.0,39.0,30.17,SSW,193,1.0,4.0,27,0.00,,,0.00,,2013-07-12 04:11:00,
2013-07-11 22:21:00,76.0,39.0,30.17,SW,225,2.0,6.0,26,0.00,,,0.00,,2013-07-12 04:21:00,
2013-07-11 22:32:00,76.0,43.0,30.20,SW,234,1.0,14.0,31,0.00,,,0.00,,2013-07-12 04:32:00,
2013-07-11 22:43:00,76.0,43.0,30.20,SW,234,1.0,14.0,31,0.00,,,0.00,,2013-07-12 04:43:00,
2013-07-11 22:53:00,70.0,48.0,30.20,SW,217,12.0,22.0,45,0.02,,,0.02,,2013-07-12 04:53:00,
2013-07-11 23:02:00,71.0,47.0,30.22,SSW,194,10.0,19.0,42,0.02,,,0.02,,2013-07-12 05:02:00,
2013-07-11 23:11:00,71.0,47.0,30.22,SSW,194,10.0,19.0,42,0.02,,,0.02,,2013-07-12 05:11:00,
2013-07-11 23:22:00,70.0,46.0,30.22,SSW,194,8.0,14.0,43,0.02,,,0.02,,2013-07-12 05:22:00,
2013-07-11 23:32:00,70.0,46.0,30.22,SSW,206,5.0,12.0,42,0.02,,,0.02,,2013-07-12 05:32:00,
2013-07-11 23:43:00,70.0,46.0,30.22,SSW,206,5.0,12.0,42,0.02,,,0.02,,2013-07-12 05:43:00,
2013-07-11 23:53:00,71.0,45.0,30.24,SW,228,7.0,15.0,39,0.00,,,0.02,,2013-07-12 05:53:00,